Home > Weather > Abidjan > Past weeks

Flag for Cote d'Ivoire (Ivory Coast) Past Weather in Abidjan, Cote d'Ivoire (Ivory Coast) — Yesterday and Last 2 Weeks

Now
82 °F

Partly cloudy.


Feels Like: 91 °F
Forecast: N/A
Wind: 7 mph from Southwest

Location: Abidjan Airport

Current Time: May 25, 2016 at 10:48:16 PM

Latest Report: May 25, 2016 at 10:00 PM


Visibility: N/A

Pressure: 29.95 "Hg

Humidity: 84%

Dew Point: 77 °F

Location of AbidjanLocation

Past Weather in Abidjan — Graph

°F

Abidjan Temperature Yesterday

Maximum temperature yesterday: 82 °F (at 12:00 AM)
Minimum temperature yesterday: 75 °F (at 9:00 AM)
Average temperature yesterday: 78 °F

High & Low Weather Summary for the Past Weeks

 TemperatureHumidityPressure
High90 °F (May 11, 12:00 PM)100% (May 11, 7:00 AM)30.01 "Hg (May 11, 7:00 AM)
Low73 °F (May 12, 6:30 PM)62% (May 13, 1:00 PM)29.80 "Hg (May 11, 4:30 PM)
Average82 °F86%29.92 "Hg
* Reported May 10 9:00 PM — May 25 9:30 PM, Abidjan, Weather by CustomWeather, © 2016

Note: Actual official high and low records may vary slightly from our data, if they occured in-between our weather recording intervals... More about our weather records

Advertising

Abidjan Weather History for the Previous 24 Hours

Scroll right to see more
 ConditionsComfort  
Time TempWeatherWind HumidityBarometerVisibility
9:30 PM
Wed, May 25
82 °FPartly cloudy.5 mph84%29.95 "HgN/A
9:00 PM82 °FPartly cloudy.5 mph84%29.95 "HgN/A
8:30 PM82 °FPassing clouds.8 mph84%29.92 "HgN/A
8:00 PM81 °FPassing clouds.6 mph89%29.92 "HgN/A
7:30 PM81 °FPassing clouds.5 mph89%29.92 "HgN/A
7:00 PM82 °FPassing clouds.6 mph84%29.92 "HgN/A
6:30 PM82 °FPassing clouds.6 mph84%29.92 "HgN/A
6:00 PM82 °FScattered clouds.7 mph79%29.89 "HgN/A
5:30 PM84 °FScattered clouds.9 mph79%29.89 "HgN/A
5:00 PM84 °FScattered clouds.12 mph79%29.89 "HgN/A
4:30 PM84 °FScattered clouds.13 mph79%29.89 "HgN/A
4:00 PM86 °FScattered clouds.12 mph75%29.89 "HgN/A
3:30 PM86 °FScattered clouds.9 mph75%29.89 "HgN/A
3:00 PM86 °FScattered clouds.10 mph75%29.92 "HgN/A
2:30 PM86 °FScattered clouds.8 mph75%29.92 "HgN/A
2:00 PM86 °FScattered clouds.8 mph75%29.92 "HgN/A
1:30 PM86 °FScattered clouds.10 mph75%29.92 "HgN/A
1:00 PM86 °FScattered clouds.6 mph75%29.95 "HgN/A
12:30 PM84 °FBroken clouds.7 mph84%29.95 "Hg4 mi
12:00 PM84 °FBroken clouds.5 mph79%29.98 "Hg4 mi
11:30 AM84 °FBroken clouds.3 mph79%29.98 "Hg4 mi
11:00 AM82 °FPartly sunny.3 mph84%29.98 "Hg4 mi
10:30 AM82 °FPartly sunny.1 mph84%29.98 "Hg4 mi
10:00 AM81 °FPartly sunny.2 mph89%29.98 "Hg4 mi
9:30 AM81 °FPartly sunny.2 mph89%29.98 "Hg4 mi
9:00 AM79 °FBroken clouds.2 mph89%29.98 "Hg4 mi
8:30 AM79 °FBroken clouds.2 mph89%29.98 "Hg4 mi
8:00 AM79 °FBroken clouds.2 mph94%29.98 "Hg4 mi
7:30 AM77 °FPartly sunny.3 mph100%29.98 "Hg4 mi
7:00 AM77 °FBroken clouds.2 mph100%29.95 "Hg4 mi
6:30 AM77 °FBroken clouds.2 mph94%29.95 "Hg4 mi
6:00 AM77 °FBroken clouds.3 mph94%29.95 "Hg4 mi
5:30 AM77 °FLight rain. Passing clouds.3 mph94%29.95 "Hg4 mi
5:00 AM77 °FLight rain. Passing clouds.2 mph94%29.95 "Hg4 mi
4:30 AM77 °FLight rain. Passing clouds.3 mph94%29.95 "Hg4 mi
4:00 AM77 °FRain. Passing clouds.6 mph94%29.95 "Hg2 mi
3:30 AM77 °FLight rain. Passing clouds.5 mph94%29.95 "Hg4 mi
3:00 AM77 °FLight rain. Passing clouds.6 mph94%29.92 "Hg4 mi
2:30 AM77 °FLight rain. Passing clouds.5 mph100%29.95 "Hg4 mi
2:00 AM79 °FLight rain. Passing clouds.7 mph94%29.95 "Hg4 mi
1:30 AM79 °FPassing clouds.5 mph94%29.95 "Hg5 mi
1:00 AM79 °FPassing clouds.3 mph94%29.95 "Hg5 mi
12:30 AM79 °FPartly cloudy.5 mph94%29.95 "Hg5 mi
12:00 AM79 °FPartly cloudy.5 mph100%29.95 "Hg5 mi
11:30 PM
Tue, May 24
79 °FPartly cloudy.3 mph100%29.98 "Hg5 mi
11:00 PM81 °FPartly cloudy.2 mph94%29.98 "Hg5 mi
10:30 PM81 °FPartly cloudy.5 mph94%29.95 "Hg5 mi
10:00 PM81 °FPassing clouds.6 mph94%29.98 "Hg5 mi
Weather by CustomWeather, © 2016

See weather overviewHow to use our weather pages